Regional Weather Roundup
Issued by NWS Wakefield, VA

Home | Current Version | Previous Version | Graphics & Text | Print | Product List | Glossary On
Versions: 1 2 3 4 5 6 7 8 9 10 11 12 13 14 15 16 17 18 19 20 21 22 23 24 25 26 27 28 29 30 31 32 33 34 35 36 37 38 39 40 41 42 43 44 45 46 47 48 49 50
000
ASUS41 KAKQ 300910
RWRAKQ

REGIONAL WEATHER ROUNDUP
NATIONAL WEATHER SERVICE WAKEFIELD VA
500 AM EDT SAT AUG 30 2014

Note: "fair" indicates few or no clouds below 12,000 feet with no
significant weather and/or obstructions to visibility. * = Denotes
station may not report precipitation (e.g., rain,snow,etc.),
thunder or fog.

VAZ042-051-052>054-056-301000-
NORTHERN VIRGINIA

CITY           SKY/WX    TMP DP  RH WIND       PRES   REMARKS
WASH NATIONAL  CLOUDY    71  61  70 S7        30.22R
DULLES         MOCLDY    66  62  87 S3        30.21S
FORT BELVOIR   CLOUDY    64  62  94 SE1       30.21S
QUANTICO       CLOUDY    72  63  73 S10       30.22R
FREDERICKSBRG* CLOUDY    66  62  89 CALM      30.20S
STAFFORD*      CLOUDY    63  63 100 CALM      30.25R
WARRENTON      CLOUDY    68  67  97 CALM      30.21R
CULPEPER*      CLOUDY   N/A N/A N/A CALM      30.21S
MANASSAS*      CLOUDY    66  66 100 CALM      30.21S
LEESBURG*      CLOUDY    68  63  83 S5        30.21F
WINCHESTER     CLEAR     64  57  77 S3        30.19S
$$

VAZ048-049-060>072-079>083-301000-
CENTRAL AND SOUTH CENTRAL VIRGINIA...AND NORTH CENTRAL NORTH CAROLINA

CITY           SKY/WX    TMP DP  RH WIND       PRES   REMARKS
RICHMOND       CLOUDY    70  63  78 CALM      30.21R
CHESTERFIELD*  CLOUDY   N/A N/A N/A CALM      30.22S
PETERSBURG*    CLOUDY    69  64  83 CALM      30.21S
HANOVER        CLOUDY    67  63  87 CALM      30.22S
TAPPAHANNOCK*  MOCLDY    68  64  85 CALM      30.22S
CHARLOTTSVILLE CLOUDY    68  63  84 NW3       30.21R
ORANGE*        CLOUDY    68  61  77 CALM      30.23R
LOUISA*        CLOUDY    68  63  83 CALM      30.20S
FARMVILLE*     CLOUDY    72  70  94 CALM      30.18S
SOUTH HILL*      N/A     72  70  94 CALM      30.25S
ROANOKE RAPIDS MOSUNNY   68  64  88 CALM      30.19S
RALEIGH        CLOUDY    72  68  87 SE5       30.19S
$$

VAZ088>098-301000-
SOUTHEAST VIRGINIA

CITY           SKY/WX    TMP DP  RH WIND       PRES   REMARKS
NORFOLK        CLOUDY    74  63  68 E5        30.20S
VIRGINIA BEACH CLOUDY    73  64  73 SE5       30.19S
NORFOLK NAVAL  CLOUDY    75  64  68 E6        30.21S
WEST POINT*    CLOUDY    69  64  82 NE3       30.22S
NEWPORT NEWS   CLOUDY    73  64  73 CALM      30.20S
LANGLEY AFB    DRIZZLE   75  64  69 SE5       30.20S
FORT EUSTIS    MOCLDY    73  62  67 NE2       30.19R
WILLIAMSBURG*  CLEAR     73  66  78 CALM      30.21S
FRANKLIN*      MOCLDY    70  66  88 CALM      30.20S
WAKEFIELD      CLOUDY    71  66  84 CALM      30.20S
$$

VAZ020-022-025-037-045-301000-
WESTERN AND SOUTHWEST VIRGINIA

CITY           SKY/WX    TMP DP  RH WIND       PRES   REMARKS
STAUNTON*      CLOUDY    67  61  81 CALM      30.23R
HOT SPRINGS VA CLOUDY    62  62 100 S6        30.32F FOG
LYNCHBURG      CLOUDY    71  69  93 SE5       30.22S
DANVILLE       CLOUDY    73  70  90 CALM      30.20R
MARTINSVILLE   RAIN      71  70  99 CALM      30.23R
ROANOKE        PTCLDY    70  68  93 SE5       30.23R
BLACKSBURG     MOCLDY    64  64 100 CALM      30.27S FOG
DUBLIN*        CLOUDY    67  67 100 CALM      30.26S FOG
MARION*        MOCLDY   N/A N/A N/A CALM      30.29S FOG
HILLSVILLE*    CLOUDY    66  66  99 CALM      30.28R FOG
RICHLANDS*     SUNNY     73  65  76 S3        30.25R
WISE*          CLEAR     70  68  94 S7        30.24S
ABINGDON*      MOCLDY    69  67  93 CALM      30.23R
$$

MDZ021>025-VAZ099-100-301000-
SOUTHERN MARYLAND AND THE DELMARVA PENINSULA

CITY           SKY/WX    TMP DP  RH WIND       PRES   REMARKS
PATUXENT RIVER CLOUDY    68  62  81 S3        30.21S
BAY BRIDGE APT   N/A     66  63  88 SE3       30.22S
LEONARDTOWN    MOCLDY    66  59  77 CALM      30.22F
DOVER          PTCLDY    63  63  99 CALM      30.21S
GEORGETOWN     PTCLDY    59  56  89 CALM      30.24R
EASTON         CLEAR     62  62 100 CALM      30.26S
CAMBRIDGE      CLEAR     61  59  94 E3        30.21S
SALISBURY      MOCLDY    60  56  86 CALM      30.23R
OCEAN CITY     CLOUDY    60  58  92 CALM      30.23R
WALLOPS ISLAND PTCLDY    64  59  83 CALM      30.23R
ACCOMACK*      NOT AVBL
$$

NCZ012>017-030>032-301000-
EASTERN NORTH CAROLINA

CITY           SKY/WX    TMP DP  RH WIND       PRES   REMARKS
ELIZABETH CITY CLOUDY    74  67  78 NE7       30.20R
AHOSKIE*       PTCLDY    69  65  86 CALM      30.20R
EDENTON*       CLOUDY    72  68  88 NE3       30.19R
CURRITUCK*     CLOUDY    75  63  65 E6        30.20S
KILL DEVIL HLS PTCLDY    75  68  79 E7        30.18S
MANTEO         MOCLDY    74  68  81 E8        30.18S
CAPE HATTERAS  CLEAR     74  74 100 NE5       30.17S
GOLDSBORO      CLEAR     70  70  98 NE2       30.17R
WASHINGTON     MOCLDY    69  67  94 CALM      30.19S
GREENVILLE     MOCLDY    70  68  94 CALM      30.20R
NEW BERN       CLEAR     73  70  90 NE3       30.19R
WILMINGTON     PTCLDY    72  71  97 NE3       30.15S
$$

VAZ048-301000-
ELSEWHERE

CITY           SKY/WX    TMP DP  RH WIND       PRES   REMARKS
HARRISBURG PA  MOCLDY    62  57  83 E5        30.21F
BALTIMORE      MOCLDY    64  61  90 CALM      30.21F
ANNAPOLIS      MOCLDY    71  64  78 SE10      30.21S
ANDREWS AFB    CLOUDY    65  62  89 SE5       30.21S
WILMINGTON DE  PTCLDY    63  60  90 NE6       30.24S
PHILADELPHIA   PTCLDY    62  58  86 CALM      30.25S
WILDWOOD NJ*   PTCLDY    57  54  88 CALM      30.25R
ATLANTIC CITY  PTCLDY    56  54  93 CALM      30.25R
HENDERSON NC   CLOUDY    70  65  85 CALM      30.21R
GREENSBORO     CLOUDY    74  71  91 SW3       30.19S
ROCKY MOUNT    CLOUDY    70  67  90 CALM      30.19S
FAYETTEVILLE   CLEAR     70  69  97 CALM      30.16S
CHARLOTTE      PTCLDY    71  68  90 CALM      30.18S
$$

VAZ100-301000-
MARINE

STATION/POSITION TIME  TEMP    WIND        PRES    WAVE   SWELL
                       AIR SEA DIR/SP/G            HT/PER HT/PER
                 (UTC) (F)     (DEG/KT/KT) (MB)    (FT/S) (FT/S)
44066 TX TWR #4  0900   70 72  150/  8/ 10 1024.3S   3/ 9   2/ 9
CAPE MAY NJ      0900   66 79   90/  1/  1 1023.3S
LEWES DE         0900   67 76  120/  2/  2 1023.2S
15NM E FENWICK I 0900   72 73              1023.6R   2/ 9
OCEAN-CITY-INLET 0900   68 75   10/  2/  2 1023.1S
WACHAPREAGUE VA  0900   72 78   80/  5/  6 1022.8S
THOMAS POINT MD  0900   70 77  140/  9/ 10 1024.0F
GOOSES REEF MD   0900   71     150/ 10/ 12 1023.4S
COVE POINT MD    0900   71     140/  9/ 11 1022.8F
SOLOMONS ISLAND  0900      78                N/A
BISHOPS HEAD MD  0900   71 75  100/  9/ 11 1022.3S
PINEY POINT MD   0900          170/  9/ 11   N/A
POTOMAC MD       0900   74     160/  8/ 10 1022.2R
CAMBRIDGE MD     0900   65 79  140/  1/  3 1022.8S
LEWISETTA VA     0900   72 78  130/  3/  4 1022.5S
RAPPAHANNOCK LGT 0900           90/  2/  3 1023.8R
STINGRAY PT      0900   75     120/ 10/ 14   N/A
YORK RVR RNG VA  0900   76     150/  9/ 10 1022.4R
YORKTOWN VA      0900   74 80  150/  2/  3 1022.4S
JAMESTOWN VA     0900   74     120/  4/  6   N/A
DOMINION TERM VA 0900   75     110/  7/  8 1022.6S
KIPTOPEKE VA     0900      81  110/  5/  7   N/A
CHES BAY BRIDGE  0900   76 77  100/  6/ 11 1022.1F
CAPE HENRY VA    0900   75     110/ 10/ 11 1021.5S
CHESAPEAKE LGHT  0800   75     120/ 14/ 15 1022.9F
WILLOUBY STN VA  0900   75     110/  6/  8 1021.4S
S CRANEY ISL VA  0900           80/  5/  6 1022.3R
CAPE HENRY BUOY  0900      76                N/A     2/ 8
1ST LANDING BUOY 0900   76     120/ 10/ 12 1022.3S
CAPE CHARLES BUO 0900      76                N/A     2/ 8   2/ 8
OFFSHORE WE BUOY 0900      76                N/A     2/ 8   2/ 8
64NM E OF VA BCH 0900   76 76   80/ 12/ 14 1022.2F   3/ 8   2/ 8
DUCK PIER NC     0900   76 78   90/ 14/ 16 1021.4F
44056 DUCK FRF   0900                        N/A     3/ 7
OREGON INLET NC  0900   75 79   60/  8/ 12 1021.9S
HATTERAS NC      0900   78 82   80/  2/  2 1021.9S
DIAMOND SHLS NC  0900   76     170/  8/ 10 1021.5R   4/ 7   3/ 7
CAPE LOOKOUT NC  0800   80      70/  3/  3 1021.1F
$$


USA.gov is the U.S. government's official web portal to all federal, state and local government web resources and services.